Showing default

RISAT-2BR1, 44857

Orbit data source: Space-Track

RISAT-2BR1, 44857 is a payload satellite owned by ISRO (IN) in LEO that was launched on Wed, 11 Dec 2019 UTC via a PSLV-QL launch vehicle from the Sirharikota (SRI). Payload-class satellites include a variety of spacecraft equipped with specific instruments for various scientific and technological missions. These include communications satellites like Starlink; space stations such as the ISS; scientific satellites like the Hubble; Earth observation satellites from companies like Planet Labs, Umbra, and HawkEye 360; GPS; miniature CubeSats for education and research; and military/defense satellites.

Loading next visibility...
Identifier
44857, 2019-089F
Orbit
LEO
Last TLE update
7 hours ago
Origin
Manufacturer
ISRO
Mission
Operational Civil Radar Imaging
Bus & Motor
TECHSAR, Unknown motor
Mass
628 kg wet, 628 kg dry
Launch date (UTC)
2019-12-11 (6 years ago)
Launch vehicle
PSLV-QL
Launch site
Sirharikota (SRI)
Object type
Payload
Rocket body
Debris
Shape & HBR
Hex Cyl + 2 Pan + 1 Dish, Unknown HBR
Radar Cross Section
2.910 m², Large (>1 m²)

Expand to show TLE details & history

TLE from 7 hours ago
0 RISAT-2BR1
1 44857U 19089F   25187.55917732  .00003108  00000-0  24303-3 0  9994
2 44857  36.9617   1.2509 0012809 252.4290 107.5052 15.01244795305234
Epoch: 2025-07-06T13:25Z
TLE epoch observation values (Epoch: 2025-07-06T13:25:12.92Z)
Latitude
-0.00007°
Longitude
-124.83415°
Altitude
564.864 km
Speed
7.579 km/s
True Right ascension
00h 05m 00s
True Declination
0° 00' 00"
Sunlit
Object was in daylight at epoch
Visualization orbit readout
Latitude
-13.31042°
Longitude
71.58658°
Altitude
559.436 km
Speed
7.586 km/s
Apparent Right ascension
16h 02m 27s
Apparent Declination
-40° 29' 37"
Sunlit
Object is in daylight
Visualization observer readout
Local Sidereal Time
08:42:02
Azimuth
114.823° SE
Elevation
-38.11°
Doppler factor
1
Orbital elements
Apogee altitude
574.861 km
Perigee altitude
557.071 km
Semi-major axis
6,944.103 km
Eccentricity
0.00128
Inclination
36.9617°
RAAN
1.2509°
Arg. of periapsis
252.429°
True anomaly
Unknown
Mean anomaly
107.5052°
Eccentric anomaly
Unknown
Mean motion
3.75076 °/min
Orbital period
95.98 mins
BSTAR
0.00024303
Loading maneuver chart data...
Loading SW <> Apogee altitude chart data...
Loading historical data...
Loading historical data...
Loading historical data...
Loading historical data...
Loading historical data...
Loading historical data...
Loading historical data...

RISAT-2BR1 Visibility forecast

Observer location: undefined°, undefined°

Span
Click to sort rows by Start time (UTC) header in descending order
Start Az.
Max El. time (UTC)
Max El. Az.
Max El.
End time (UTC)
End Az.
6 mins2025-07-07 15:11:11.619Z214.771° SW2025-07-07 15:14:11.619Z166.429° S24.958°2025-07-07 15:17:11.619Z107.538° ESE
6 mins2025-07-07 16:53:11.619Z240.696° WSW2025-07-07 16:55:11.619Z184.766° SSW38.999°2025-07-07 16:59:11.619Z97.66° ESE
6 mins2025-07-07 18:34:11.619Z253.325° W2025-07-07 18:36:11.619Z200.101° SSW37.043°2025-07-07 18:40:11.619Z116.367° SE
5 mins2025-07-07 20:15:11.619Z241.41° WSW2025-07-07 20:17:11.619Z204.505° SW20.612°2025-07-07 20:20:11.619Z156.621° SSE
|